Weather History for Llano, TX

Change the Weather History Date:

Tuesday, March 26, 2013

  Actual Average (KBMQ) Record (KBMQ)
Temperature  
Mean Temperature 47 °F -  
Max Temperature 66 °F 68 °F 91 °F (2011)
Min Temperature 28 °F 49 °F 32 °F (2013)
Degree Days  
Heating Degree Days 18    
Moisture  
Dew Point 20 °F    
Average Humidity 38    
Maximum Humidity 74    
Minimum Humidity 17    
Precipitation  
Precipitation 0.00 in - - ()
Sea Level Pressure  
Sea Level Pressure 30.40 in    
Wind  
Wind Speed 2 mph (SE)    
Max Wind Speed 10 mph    
Max Gust Speed -    
Visibility 10 miles    
Events      
Averages and records for this station are not official NWS values.
T = Trace of Precipitation, MM = Missing Value Source: NWS Daily Summary

Daily Weather History Graph

Daily Weather History Graph

Search for Another Location

Airport:

Trip Planner

Search our weather history database for the weather conditions in past years. The results will help you decide how hot, cold, wet, or windy it might be!

Date:

Astronomy

Mar. 26, 2013 Rise Set
Actual Time 7:30 AM CDT 7:50 PM CDT
Civil Twilight 7:06 AM CDT 8:14 PM CDT
Nautical Twilight 6:38 AM CDT 8:42 PM CDT
Astronomical Twilight 6:09 AM CDT 9:11 PM CDT
Moon 7:27 PM CDT (3/26) 6:47 AM CDT (3/26)
Length of Visible Light 13h 07m
Length of Day
12h 19m
Waxing Gibbous, 99% of the Moon is Illuminated
Mar 26
Waxing Gibbous
Mar 27
Full
Apr 2
Last Quarter
Apr 10
New
Apr 18
First Quarter

Hourly Weather History & Observations

Time (CDT) Temp. Windchill Dew Point Humidity Pressure Visibility Wind Dir Wind Speed Gust Speed Precip Events Conditions
12:15 AM 44.6 °F 42.2 °F 17.6 °F 34% 30.43 in 10.0 mi East 4.6 mph - N/A   Clear
12:35 AM 41.0 °F - 19.4 °F 42% 30.44 in 10.0 mi Calm Calm - N/A   Clear
12:55 AM 39.2 °F - 19.4 °F 45% 30.44 in 10.0 mi Calm Calm - N/A   Clear
1:15 AM 41.0 °F - 19.4 °F 42% 30.44 in 10.0 mi Calm Calm - N/A   Clear
1:35 AM 39.2 °F - 19.4 °F 45% 30.44 in 10.0 mi Calm Calm - N/A   Clear
1:55 AM 39.2 °F - 19.4 °F 45% 30.44 in 10.0 mi Calm Calm - N/A   Clear
2:15 AM 37.4 °F - 19.4 °F 48% 30.44 in 10.0 mi Calm Calm - N/A   Clear
2:35 AM 35.6 °F - 19.4 °F 52% 30.43 in 10.0 mi Calm Calm - N/A   Clear
2:55 AM 35.6 °F - 21.2 °F 56% 30.43 in 10.0 mi Calm Calm - N/A   Clear
3:15 AM 32.0 °F - 19.4 °F 60% 30.42 in 10.0 mi Calm Calm - N/A   Clear
3:35 AM 32.0 °F - 19.4 °F 60% 30.43 in 10.0 mi Calm Calm - N/A   Clear
3:55 AM 32.0 °F - 19.4 °F 60% 30.43 in 10.0 mi Calm Calm - N/A   Clear
4:15 AM 32.0 °F - 19.4 °F 60% 30.43 in 10.0 mi Calm Calm - N/A   Clear
4:35 AM 30.2 °F - 19.4 °F 64% 30.44 in 10.0 mi Calm Calm - N/A   Clear
4:55 AM 32.0 °F - 19.4 °F 60% 30.44 in 10.0 mi Calm Calm - N/A   Clear
5:15 AM 32.0 °F - 19.4 °F 60% 30.44 in 10.0 mi Calm Calm - N/A   Clear
5:35 AM 30.2 °F - 19.4 °F 64% 30.44 in 10.0 mi Calm Calm - N/A   Clear
5:55 AM 28.4 °F - 19.4 °F 69% 30.44 in 10.0 mi Calm Calm - N/A   Clear
6:15 AM 30.2 °F - 19.4 °F 64% 30.45 in 10.0 mi Calm Calm - N/A   Clear
6:35 AM 30.2 °F - 19.4 °F 64% 30.45 in 10.0 mi Calm Calm - N/A   Clear
6:55 AM 30.2 °F - 19.4 °F 64% 30.47 in 10.0 mi Calm Calm - N/A   Clear
7:15 AM 28.4 °F - 21.2 °F 74% 30.47 in 10.0 mi Calm Calm - N/A   Clear
7:35 AM 28.4 °F - 19.4 °F 69% 30.48 in 10.0 mi Calm Calm - N/A   Clear
7:55 AM 28.4 °F - 19.4 °F 69% 30.48 in 10.0 mi Calm Calm - N/A   Clear
8:15 AM 30.2 °F - 21.2 °F 69% 30.49 in 10.0 mi Calm Calm - N/A   Clear
8:35 AM 33.8 °F - 23.0 °F 65% 30.49 in 10.0 mi Calm Calm - N/A   Clear
8:55 AM 37.4 °F - 21.2 °F 52% 30.50 in 10.0 mi Calm Calm - N/A   Clear
9:15 AM 39.2 °F - 23.0 °F 52% 30.51 in 10.0 mi Calm Calm - N/A   Clear
9:35 AM 42.8 °F - 26.6 °F 53% 30.51 in 10.0 mi Calm Calm - N/A   Clear
9:55 AM 46.4 °F 44.3 °F 23.0 °F 40% 30.51 in 10.0 mi SE 4.6 mph - N/A   Clear
10:15 AM 46.4 °F 43.5 °F 23.0 °F 40% 30.51 in 10.0 mi SSE 5.8 mph - N/A   Clear
10:35 AM 48.2 °F - 21.2 °F 34% 30.51 in 10.0 mi SE 3.5 mph - N/A   Clear
10:55 AM 51.8 °F - 19.4 °F 28% 30.51 in 10.0 mi SE 6.9 mph - N/A   Clear
11:15 AM 53.6 °F - 19.4 °F 26% 30.50 in 10.0 mi Calm Calm - N/A   Clear
11:35 AM 53.6 °F - 19.4 °F 26% 30.49 in 10.0 mi Calm Calm - N/A   Clear
11:55 AM 55.4 °F - 17.6 °F 23% 30.49 in 10.0 mi SW 3.5 mph - N/A   Clear
12:15 PM 57.2 °F - 19.4 °F 23% 30.47 in 10.0 mi South 5.8 mph - N/A   Clear
12:35 PM 57.2 °F - 19.4 °F 23% 30.46 in 10.0 mi Calm Calm - N/A   Clear
12:55 PM 60.8 °F - 21.2 °F 22% 30.45 in 10.0 mi Calm Calm - N/A   Clear
1:15 PM 60.8 °F - 19.4 °F 20% 30.44 in 10.0 mi East 4.6 mph - N/A   Clear
1:55 PM 60.8 °F - 19.4 °F 20% 30.41 in 10.0 mi East 3.5 mph - N/A   Clear
2:15 PM 60.8 °F - 19.4 °F 20% 30.40 in 10.0 mi Calm Calm - N/A   Clear
2:35 PM 64.4 °F - 19.4 °F 18% 30.39 in 10.0 mi Calm Calm - N/A   Clear
2:55 PM 62.6 °F - 19.4 °F 19% 30.38 in 10.0 mi SSW 6.9 mph - N/A   Clear
3:15 PM 64.4 °F - 19.4 °F 18% 30.37 in 10.0 mi ESE 5.8 mph - N/A   Clear
3:55 PM 64.4 °F - 19.4 °F 18% 30.34 in 10.0 mi ESE 4.6 mph - N/A   Clear
4:15 PM 64.4 °F - 19.4 °F 18% 30.33 in 10.0 mi SE 4.6 mph - N/A   Clear
4:35 PM 66.2 °F - 19.4 °F 17% 30.33 in 10.0 mi SE 4.6 mph - N/A   Clear
4:55 PM 64.4 °F - 19.4 °F 18% 30.32 in 10.0 mi SE 8.1 mph - N/A   Clear
5:15 PM 66.2 °F - 19.4 °F 17% 30.31 in 10.0 mi SE 6.9 mph - N/A   Clear
5:35 PM 66.2 °F - 19.4 °F 17% 30.30 in 10.0 mi East 3.5 mph - N/A   Clear
5:55 PM 64.4 °F - 19.4 °F 18% 30.30 in 10.0 mi Calm Calm - N/A   Clear
6:15 PM 66.2 °F - 19.4 °F 17% 30.29 in 9.0 mi SE 9.2 mph - N/A   Clear
6:35 PM 64.4 °F - 19.4 °F 18% 30.29 in 10.0 mi SE 9.2 mph - N/A   Clear
6:55 PM 64.4 °F - 19.4 °F 18% 30.29 in 10.0 mi SSE 10.4 mph - N/A   Clear
7:15 PM 62.6 °F - 17.6 °F 18% 30.29 in 10.0 mi SE 10.4 mph - N/A   Clear
7:35 PM 60.8 °F - 17.6 °F 19% 30.29 in 10.0 mi SE 6.9 mph - N/A   Clear
7:55 PM 57.2 °F - 19.4 °F 23% 30.29 in 10.0 mi Calm Calm - N/A   Clear
8:15 PM 55.4 °F - 19.4 °F 25% 30.29 in 10.0 mi Calm Calm - N/A   Clear
8:35 PM 55.4 °F - 19.4 °F 25% 30.29 in 10.0 mi Calm Calm - N/A   Clear
8:55 PM 53.6 °F - 21.2 °F 28% 30.30 in 10.0 mi Calm Calm - N/A   Clear
9:15 PM 51.8 °F - 21.2 °F 30% 30.30 in 10.0 mi SE 5.8 mph - N/A   Clear
9:35 PM 51.8 °F - 21.2 °F 30% 30.30 in 10.0 mi SE 3.5 mph - N/A   Clear
9:55 PM 51.8 °F - 21.2 °F 30% 30.31 in 10.0 mi SE 5.8 mph - N/A   Clear
10:15 PM 48.2 °F - 23.0 °F 37% 30.31 in 10.0 mi SE 3.5 mph - N/A   Clear
10:35 PM 48.2 °F - 21.2 °F 34% 30.31 in 10.0 mi Calm Calm - N/A   Clear
10:55 PM 48.2 °F - 21.2 °F 34% 30.32 in 10.0 mi Calm Calm - N/A   Clear
11:15 PM 48.2 °F - 21.2 °F 34% 30.32 in 10.0 mi SE 4.6 mph - N/A   Clear
11:35 PM 46.4 °F - 21.2 °F 37% 30.32 in 10.0 mi Calm Calm - N/A   Clear
11:55 PM 46.4 °F - 21.2 °F 37% 30.32 in 10.0 mi Calm Calm - N/A   Clear